Location: Wien
(48.2082°N, 16.3738°E)
Time: 08:33:58
(UTC+01:00)

Vanguard 1 Rocket - All Passes

Search period start: 25 February 2024 00:00
Search period end: 06 March 2024 00:00
Orbit: 654 x 4218 km, 34.3° (Epoch: 24 February)

Date Brightness Start Highest point End Pass type
(mag) Time Alt. Az. Time Alt. Az. Time Alt. Az.
25 Feb - 05:18:33 10° S 05:31:53 20° SSE 05:41:36 10° ESE visible
25 Feb - 07:43:31 10° SW 07:59:14 35° SSE 08:08:24 10° ESE daylight
25 Feb - 10:13:21 10° WSW 10:25:13 36° S 10:31:57 10° SE daylight
25 Feb - 12:44:00 10° WSW 12:49:10 17° SW 12:53:00 10° S daylight
26 Feb - 04:09:31 10° SSE 04:18:39 14° SE 04:26:20 10° ESE visible
26 Feb - 06:29:33 10° SSW 06:46:20 31° SSE 06:56:51 10° ESE daylight
26 Feb - 08:58:27 10° WSW 09:13:12 39° S 09:21:22 10° ESE daylight
26 Feb - 11:29:11 10° WSW 11:38:09 27° SSW 11:43:45 10° SSE daylight
27 Feb - 05:16:41 10° SSW 05:33:06 26° SSE 05:44:29 10° ESE visible
27 Feb - 07:43:32 10° SW 08:00:41 39° S 08:10:24 10° ESE daylight
27 Feb - 10:14:15 10° WSW 10:26:41 36° SSW 10:33:42 10° SE daylight
27 Feb - 12:45:55 10° WSW 12:50:24 15° SW 12:53:54 10° S daylight
28 Feb - 04:05:42 10° S 04:19:42 19° SE 04:30:40 10° ESE visible
28 Feb - 06:29:03 10° SW 06:47:39 36° SSE 06:58:58 10° ESE daylight
28 Feb - 08:59:02 10° WSW 09:14:39 42° S 09:23:12 10° ESE daylight
28 Feb - 11:30:28 10° W 11:39:29 26° SSW 11:45:11 10° SSE daylight
29 Feb - 02:59:07 10° SSE 03:06:22 12° SE 03:12:57 10° ESE visible
29 Feb - 05:15:29 10° SSW 05:34:15 31° SSE 05:46:52 10° E visible
29 Feb - 07:43:45 10° WSW 08:02:03 43° S 08:12:17 10° ESE daylight
29 Feb - 10:15:12 10° WSW 10:28:04 36° SSW 10:35:22 10° SE daylight
29 Feb - 12:48:18 10° WSW 12:51:32 12° SW 12:54:15 10° SSW daylight
01 Mar - 04:03:25 10° S 04:20:41 25° SE 04:33:42 10° E visible
01 Mar - 06:28:50 10° SW 06:48:54 41° SSE 07:00:55 10° ESE daylight
01 Mar - 08:59:42 10° WSW 09:16:02 43° S 09:24:57 10° ESE daylight
01 Mar - 11:31:49 10° W 11:40:41 23° SW 11:46:28 10° SSE daylight
02 Mar - 02:53:54 10° SSE 03:07:09 17° SE 03:18:28 10° ESE visible
02 Mar - 05:14:46 10° SSW 05:35:20 36° SSE 05:48:58 10° E visible
02 Mar - 07:44:07 10° WSW 08:03:22 46° S 08:14:05 10° ESE daylight
02 Mar - 10:16:11 10° W 10:29:21 34° SSW 10:36:54 10° SE daylight
03 Mar - 04:01:59 10° SSW 04:21:33 30° SSE 04:36:09 10° E visible
03 Mar - 06:28:52 10° SW 06:50:07 45° S 07:02:45 10° ESE daylight
03 Mar - 09:00:25 10° WSW 09:17:20 43° SSW 09:26:36 10° SE daylight
03 Mar - 11:33:18 10° W 11:41:47 21° SW 11:47:30 10° S daylight
04 Mar - 02:51:06 10° S 03:07:50 22° SE 03:21:52 10° E visible
04 Mar - 05:14:23 10° SW 05:36:21 41° SSE 05:50:52 10° E visible
04 Mar - 07:44:36 10° WSW 08:04:38 48° S 08:15:47 10° ESE daylight
04 Mar - 10:17:13 10° W 10:30:30 32° SSW 10:38:17 10° SSE daylight
05 Mar - 01:43:50 10° SSE 01:54:26 14° SE 02:04:19 10° ESE visible
05 Mar - 04:01:05 10° SSW 04:22:23 35° SSE 04:38:14 10° E visible
05 Mar - 06:29:05 10° WSW 06:51:15 49° S 07:04:29 10° ESE daylight
05 Mar - 09:01:12 10° W 09:18:32 42° SSW 09:28:09 10° SE daylight
05 Mar - 11:35:00 10° W 11:42:43 18° SW 11:48:12 10° S daylight
